www.pogodaiklimat.ru

Погода и климат >> Архив погоды >> Россия >> Орловская область >> Орел


АРХИВ ПОГОДЫ в Орле

Время (UTC), дата Ветер
(напр.,м/с)
 
Видим.   Явления Облачность Т
(С)
Тd
(С)
f
(%)
Тe
(С)
Тes
(С)
Комфортность P
(гПа)
Po
(гПа)
Тmin
(С)
Tmax
(С)
R
(мм)
R24
(мм)
S
(см)
18 13.09 С 1 10 км 9/0
[Ac trans Ci fib]
+19.7 +15.7 78 +23 +23 комфорт 1018.2 995.4 +27.9
21 13.09 штиль 0 10 км 8/0
[Ac trans Ci fib]
+17.0 +14.6 86 +17 +17 тепло 1018.5 995.5
00 14.09 штиль 0 10 км 9/0
[Ac trans]
+15.9 +14.5 91 +16 +16 тепло 1018.8 995.7
03 14.09 штиль 0 10 км 10/3 600 м
[Cb calv Ac trans Cs]
+16.5 +14.4 87 +16 +16 тепло 1019.1 996.0 +15.5
06 14.09 ЮВ 2 10 км {ливн. осадки} 9/3 600 м
[Cb calv Ac trans Ci fib]
+19.3 +13.9 71 +21 +23 комфорт 1018.2 995.3 +15.5 0.0
09 14.09 С 1 10 км слабый ливневой дождь, в посл. час гроза 10/10 600 м
[Cb calv]
+16.3 +15.4 94 +17 +17 тепло 1019.1 996.0
12 14.09 С 1 10 км {гроза, ливн. осадки} 9/5 600 м
[Cb calv Ac trans Ci fib]
+20.8 +16.5 76 +25 +27 комфорт 1018.1 995.4
15 14.09 С 1 10 км {ливн. осадки} 9/4 600 м
[Cb calv Ac trans Ci fib]
+19.1 +16.8 87 +22 +22 комфорт 1018.0 995.1 5
18 14.09 штиль 0 10 км {ливн. осадки} 8/1 600 м
[Cb calv Ac trans Ci fib]
+16.2 +15.7 97 +16 +16 тепло 1018.5 995.4 +21.4 5
21 14.09 штиль 0 4000 м дымка 3/0
[Ac trans]
+14.3 +13.9 97 +14 +14 тепло 1018.7 995.4
00 15.09 штиль 0 4000 м дымка ясно +12.6 +12.2 97 +12 +12 тепло 1018.4 995.0
03 15.09 штиль 0 4000 м дымка 3/0
[Ci fib]
+11.3 +11.1 99 +11 +11 тепло 1017.9 994.4 +11.0
06 15.09 С 1 4000 м дымка 8/0
[Ci fib]
+15.1 +13.5 90 +16 +19 тепло 1018.4 995.2 +10.8
09 15.09 СВ 2 10 км 9/0
[Ci sp]
+21.2 +14.4 65 +24 +31 комфорт 1016.7 994.0
12 15.09 СВ 1 10 км 9/3 600 м
[Cb calv Ci fib]
+24.4 +15.9 59 +28 +31 душно 1015.6 993.1
15 15.09 СВ 1 10 км 9/0
[Ci fib]
+23.4 +15.8 62 +28 +28 душно 1014.6 992.0
18 15.09 В 1 10 км 9/0
[Ac trans Ci fib]
+19.6 +15.2 76 +23 +23 комфорт 1014.5 991.7 +25.2
21 15.09 штиль 0 10 км 8/0
[Ac trans Ci fib]
+16.6 +13.0 79 +17 +17 тепло 1013.7 990.7
00 16.09 штиль 0 10 км 9/0
[Ac trans Ci fib]
+13.9 +12.6 92 +13 +13 тепло 1013.0 989.9
03 16.09 С 1 10 км 9/5 600 м
[Cb calv Ac trans Ci fib]
+14.1 +13.0 93 +14 +14 тепло 1011.6 988.5 +13.8
06 16.09 штиль 0 10 км 10/8 600 м
[Cb calv As op]
+16.7 +15.0 90 +17 +17 тепло 1011.5 988.6 +13.8
09 16.09 С 1 4000 м слабый ливневой дождь 10/8 300 м
[Cb cap As op]
+16.1 +15.4 96 +17 +17 тепло 1011.7 988.7
12 16.09 С 1 4000 м слабый ливневой дождь 10/10 300 м
[Cb cap]
+14.1 +13.4 96 +14 +14 по сезону 1012.2 989.1
15 16.09 штиль 0 10 км {ливн. осадки} 9/8 600 м
[Cb calv Ci sp]
+13.9 +13.2 96 +13 +14 по сезону 1013.1 990.0 19
18 16.09 СЗ 1 10 км {ливн. осадки} 6/0
[Ac trans]
+12.2 +8.8 80 +12 +12 тепло 1014.3 990.9 +17.0 19
21 16.09 СЗ 1 10 км ясно +10.0 +7.9 87 +10 +10 по сезону 1015.9 992.2
00 17.09 штиль 0 10 км ясно +8.0 +6.7 91 +7 +7 по сезону 1017.0 993.2
03 17.09 СЗ 1 10 км ясно +6.8 +6.1 95 +6 +6 по сезону 1019.0 995.1 +6.6
06 17.09 СЗ 1 10 км 3/0
[Ac trans]
+11.0 +7.0 76 +11 +14 тепло 1020.6 996.9 +6.2
09 17.09 С 1 10 км 3/3 600 м
[Cu hum]
+17.4 +6.5 49 +18 +25 тепло 1020.4 997.3
12 17.09 СЗ 1 10 км 5/5 600 м
[Sc]
+18.6 +4.4 39 +20 +23 тепло 1020.2 997.3
15 17.09 н/о +15.1 0.0 36 1021.0 997.8
18 17.09 З 1 10 км ясно +10.5 +6.2 75 +10 +10 по сезону 1021.8 998.1 +19.2
21 17.09 З 1 10 км ясно +8.4 +6.2 86 +8 +8 по сезону 1021.6 997.7
00 18.09 Ю 1 10 км ясно +7.3 +5.5 88 +6 +6 по сезону 1022.1 998.0
03 18.09 Ю 1 10 км 10/3 600 м
[Sc Ac As]
+8.3 +7.0 92 +7 +7 по сезону 1020.7 996.7 +7.0
06 18.09 З 2 10 км 9/4 600 м
[Sc Ac trans Ci fib]
+12.7 +7.8 72 +12 +13 тепло 1018.5 995.1 +7.0
09 18.09 З 2 10 км 10/5 600 м
[Sc As trans]
+17.0 +10.0 63 +17 +19 тепло 1017.1 994.0
12 18.09 СЗ 2 10 км 9/5 600 м
[Cu hum Ci sp]
+19.7 +9.4 51 +21 +24 комфорт 1017.2 994.3
15 18.09 СЗ 2
{10}
10 км 9/5 600 м
[Sc Ci fib]
+17.5 +8.6 56 +18 +18 тепло 1017.1 994.1
18 18.09 СЗ 1 10 км 9/0
[Ci fib]
+13.0 +8.6 75 +13 +13 тепло 1018.7 995.3 +20.2
21 18.09 штиль 0 10 км ясно +9.7 +8.3 91 +9 +9 по сезону 1019.9 996.2
00 19.09 З 1 10 км ясно +8.6 +7.8 95 +8 +8 по сезону 1020.8 996.9
03 19.09 ЮВ 1 10 км ясно +6.8 +6.4 97 +6 +6 по сезону 1021.7 997.6 +6.8
06 19.09 ЮЗ 1 10 км 1/0
[Ac trans]
+11.9 +9.1 83 +12 +15 тепло 1021.7 998.1 +6.5
09 19.09 З 3 10 км 3/3 600 м
[Cu hum]
+20.8 +11.9 57 +23 +28 комфорт 1020.4 997.5
12 19.09 З 3 10 км 3/1 600 м
[Cu hum Ci fib]
+23.6 +10.7 44 +25 +29 комфорт 1019.0 996.4
15 19.09 З 1 10 км 8/0
[Ci fib]
+21.8 +11.6 52 +24 +24 комфорт 1018.7 996.0
18 19.09 З 1 10 км 4/0
[Ci fib]
+17.4 +11.8 70 +18 +18 тепло 1018.7 995.7 +24.2
21 19.09 штиль 0 10 км 8/0
[Ci fib]
+14.9 +10.8 76 +15 +15 тепло 1018.9 995.6
00 20.09 Ю 2 н/о н/о +10.6 +9.1 90 +9 +9 тепло 1018.6 995.2
03 20.09 Ю 1 10 км 3/0
[Ci fib]
+9.9 +8.9 93 +9 +9 по сезону 1018.8 995.1 +9.9
06 20.09 ЮЗ 2 10 км 3/0
[Ci fib]
+15.5 +11.2 76 +15 +18 тепло 1018.2 995.0 +9.9
09 20.09 З 3 10 км 3/0
[Ci fib]
+23.8 +14.0 54 +26 +32 жарко 1017.4 994.9
12 20.09 СЗ 2 10 км 3/3 600 м
[Cu hum]
+26.4 +13.8 46 +29 +32 жарко 1016.7 994.4

 

Местоположение метеостанции Орел (Орловская область, Россия): широта 52.93 долгота 36.00 высота над уровнем моря 196 м.

В архиве по умолчанию представлена погода в Орле за последнюю неделю. Архивные данные за месяц целиком и за предыдущие месяцы, начиная с января 2011 года, Вы можете получить, выбрав интересующий диапазон дат из раскрывающегося списка и нажав кнопку "Ввод!".


*Определитесь, кто Вы:
робот инопланетянин человек

Внимание! Время в таблицах - всемирное. Для получения местного времени необходимо прибавить поправку, которая в Орле равна 3 ч.

Смотрите также архив погоды в соседних городах и на ближайших метеорологических станциях:

Погода в Болхове (Орловская область, Россия) (56 км)
Погода в Мценске (Орловская область, Россия) (61 км)
Погода в Карачеве (Брянская область, Россия) (70 км)
Погода в Понырях (Курская область, Россия) (71 км)
Погода в Дмитровск-Орловский (Орловская область, Россия) (75 км)
Погода в Железногорске (Курская область, Россия) (77 км)
Погода в Верховье (Орловская область, Россия) (86 км)
Погода в Фатеже (Курская область, Россия) (95 км)
Погода в Навле (Брянская область, Россия) (101 км)
Погода в Плавске (Тульская область, Россия) (114 км)

Пояснения к столбцам:

Ветер - указаны скорость ветра в м/с - средняя за 10 мин, порывы в срок и между сроками (в фигурных скобках) и направление, откуда дует ветер: С - северный, СВ - северо-восточный, В - восточный, ЮВ - юго-восточный, Ю - южный, ЮЗ - юго-западный, З - западный, СЗ - северо-западный.
Видимость - горизонтальная дальность видимости в метрах или километрах. При видимости от 1 до 10 км при отсутствии осадков обычно наблюдается дымка, при ухудшении видимости до 1 км и менее - туман. В сухую погоду видимость может ухудшаться дымом, пылью или мглою.
Явления - указаны атмосферные явления, наблюдавшиеся в срок или в последний час перед сроком; фигурными скобками обозначены явления, наблюдавшиеся между сроками (за 1-3 часа до срока); квадратными скобками обозначены град или гололедные отложения с указанием их диаметра в мм.
Облачность - указаны через наклонную черту общая и нижняя облачность в баллах и высота нижней границы облаков в метрах; квадратными скобками обозначены формы облаков: Ci - перистые, Cs - перисто-слоистые, Cc - перисто-кучевые, Ac - высококучевые, As - высокослоистые, Sc - слоисто-кучевые, Ns - слоисто-дождевые, Cu - кучевые, Cb - кучево-дождевые. Подробнее классификацию облаков см. в Атласе облаков (PDF).
T - Температура воздуха - температура, измеренная на высоте 2 м над землей.
Td - Температура точки росы - температура, при понижении до которой содержащийся в воздухе водяной пар достигнет насыщения.
f - Относительная влажность воздуха - влажноcть воздуха, измеренная на высоте 2 м над землей.
Te - Эффективная температура - температура, которую ощущает одетый по сезону человек в тени. Характеристика душности погоды. При расчете учитывается влияние влажности воздуха и скорости ветра на теплоощущения человека.
Tes - Эффективная температура на солнце - температура, которую ощущает человек, с поправкой на солнечный нагрев. Характеристика знойности погоды. Зависит от высоты солнца над горизонтом, облачности и скорости ветра. Ночью, в пасмурную погоду, а также при ветре 12 м/с и более поправка равна нулю.
P - Атмосферное давление - приведенное к уровню моря атмосферное давление.
Po - Атмосферное давление - измеренное на уровне метеостанции атмосферное давление.
Tmin - Минимальная температура - минимум температуры воздуха на высоте 2 м над землей.
Tmax - Максимальная температура - максимум температуры воздуха на высоте 2 м над землей.
R - Количество осадков - Количество выпавших осадков за период времени, мм. При наведении курсора мыши на число - период времени, за который выпало указанное количество осадков.
R24 - Количество осадков - Количество выпавших осадков за 24 часа, мм.
S - Снежный покров - Высота снежного покрова, см. При наведении курсора мыши на число - состояние снежного покрова и степень покрытия местности в баллах.